QPF
0.00 0.00 0.00 0.00 0.00 0.00 0.00 0.00 0.00 0.00 0.00 0.00 0.00 0.00 0.00 0.00 0.00 0.00 0.00 0.00 0.00 0.00 0.00 0.00 0.00 0.00 0.00 0.00 0.00 0.00 0.00 0.00 0.00 0.00 0.00 0.00 0.00 0.00 0.00 0.00 0.00 0.00 0.00
0.00 0.00 0.00 0.00 0.00 0.00 0.00 0.00 0.00 0.00 0.00 0.00 0.00 0.00 0.00 0.00 0.00 0.00 0.00 0.00 0.00 0.00 0.00 0.00 0.00 0.00 0.00 0.00 0.00 0.00 0.00 0.00 0.00 0.00 0.00 0.00 0.00 0.00 0.00 0.00 0.00 0.00 0.00
0.00 0.00 0.00 0.00 0.00 0.00 0.00 0.00 0.00 0.00 0.00 0.00 0.00 0.00 0.00 0.00 0.00 0.00 0.00 0.00 0.00 0.00 0.00 0.00 0.00 0.00 0.00 0.00 0.00 0.00 0.00 0.00 0.00 0.00 0.00 0.00 0.00 0.00 0.00 0.00 0.00 0.00 0.00
0.00 0.00 0.00 0.00 0.00 0.00 0.00 0.00 0.00 0.00 0.00 0.00 0.00 0.00 0.00 0.00 0.00 0.00 0.00 0.00 0.00 0.00 0.00 0.00 0.00 0.00 0.00 0.00 0.00 0.00 0.00 0.00 0.00 0.00 0.00 0.01 0.01 0.00 0.00 0.00 0.00 0.00 0.00
0.00 0.00 0.00 0.00 0.00 0.00 0.00 0.00 0.00 0.00 0.00 0.00 0.00 0.00 0.00 0.00 0.00 0.00 0.00 0.00 0.00 0.00 0.00 0.00 0.00 0.00 0.00 0.00 0.00 0.00 0.00 0.00 0.00 0.00 0.01 0.01 0.01 0.01 0.01 0.01 0.01 0.01 0.01
0.00 0.00 0.00 0.00 0.00 0.00 0.00 0.00 0.00 0.00 0.00 0.00 0.00 0.00 0.00 0.00 0.00 0.00 0.00 0.00 0.00 0.00 0.00 0.00 0.00 0.00 0.00 0.00 0.00 0.00 0.00 0.00 0.00 0.00 0.00 0.01 0.01 0.01 0.01 0.01 0.01 0.01 0.01
0.00 0.00 0.00 0.00 0.00 0.00 0.00 0.00 0.00 0.00 0.00 0.00 0.00 0.00 0.00 0.00 0.00 0.00 0.00 0.00 0.00 0.00 0.00 0.00 0.00 0.00 0.00 0.00 0.00 0.00 0.00 0.00 0.00 0.00 0.00 0.01 0.01 0.01 0.01 0.02 0.02 0.01 0.01
0.00 0.00 0.00 0.00 0.00 0.00 0.00 0.00 0.00 0.00 0.00 0.00 0.00 0.00 0.00 0.00 0.00 0.00 0.00 0.00 0.00 0.00 0.00 0.00 0.00 0.00 0.00 0.00 0.00 0.00 0.00 0.00 0.00 0.00 0.00 0.00 0.01 0.01 0.02 0.02 0.02 0.02 0.02
0.00 0.00 0.00 0.00 0.00 0.00 0.00 0.00 0.00 0.00 0.00 0.00 0.00 0.00 0.00 0.00 0.00 0.00 0.00 0.00 0.00 0.00 0.00 0.00 0.00 0.00 0.00 0.00 0.00 0.00 0.00 0.00 0.00 0.00 0.00 0.00 0.01 0.01 0.02 0.03 0.03 0.03 0.03
0.00 0.00 0.00 0.00 0.00 0.00 0.00 0.00 0.00 0.00 0.00 0.00 0.00 0.00 0.00 0.00 0.00 0.00 0.00 0.00 0.00 0.00 0.00 0.00 0.00 0.00 0.00 0.00 0.00 0.00 0.00 0.00 0.00 0.00 0.00 0.00 0.00 0.01 0.02 0.03 0.04 0.04 0.05
0.00 0.00 0.00 0.00 0.00 0.00 0.00 0.00 0.00 0.00 0.00 0.00 0.00 0.00 0.00 0.00 0.00 0.00 0.00 0.00 0.00 0.00 0.00 0.00 0.00 0.00 0.00 0.00 0.00 0.00 0.00 0.00 0.00 0.00 0.00 0.00 0.00 0.00 0.01 0.03 0.04 0.05 0.06
0.00 0.00 0.00 0.00 0.00 0.00 0.00 0.00 0.00 0.00 0.00 0.00 0.00 0.00 0.00 0.00 0.00 0.00 0.00 0.00 0.00 0.00 0.00 0.00 0.00 0.00 0.00 0.00 0.00 0.00 0.00 0.00 0.00 0.00 0.00 0.00 0.00 0.00 0.01 0.02 0.03 0.05 0.07
0.00 0.00 0.00 0.00 0.00 0.00 0.00 0.00 0.00 0.00 0.00 0.00 0.00 0.00 0.00 0.00 0.00 0.00 0.00 0.00 0.00 0.00 0.00 0.00 0.00 0.00 0.00 0.00 0.00 0.00 0.00 0.00 0.00 0.00 0.00 0.00 0.00 0.00 0.00 0.00 0.01 0.03 0.06
0.00 0.00 0.00 0.00 0.00 0.00 0.00 0.00 0.00 0.00 0.00 0.00 0.00 0.00 0.00 0.00 0.00 0.00 0.00 0.00 0.00 0.00 0.00 0.00 0.00 0.00 0.00 0.00 0.00 0.00 0.00 0.00 0.00 0.00 0.00 0.00 0.00 0.00 0.00 0.00 0.00 0.01 0.03
0.00 0.00 0.00 0.00 0.00 0.00 0.00 0.00 0.00 0.00 0.00 0.00 0.00 0.00 0.00 0.00 0.00 0.00 0.00 0.00 0.00 0.00 0.00 0.00 0.00 0.00 0.00 0.00 0.00 0.00 0.00 0.00 0.00 0.00 0.00 0.00 0.00 0.00 0.00 0.00 0.00 0.00 0.01
0.00 0.00 0.00 0.00 0.00 0.00 0.00 0.00 0.00 0.00 0.00 0.00 0.00 0.00 0.00 0.00 0.00 0.00 0.00 0.00 0.00 0.01 0.00 0.00 0.00 0.00 0.00 0.00 0.00 0.00 0.00 0.00 0.00 0.00 0.00 0.00 0.00 0.00 0.00 0.00 0.00 0.01 0.01
0.00 0.00 0.00 0.00 0.00 0.00 0.00 0.00 0.00 0.00 0.00 0.00 0.00 0.00 0.00 0.00 0.00 0.00 0.00 0.00 0.00 0.01 0.01 0.00 0.00 0.00 0.00 0.00 0.00 0.00 0.00 0.00 0.00 0.00 0.00 0.00 0.00 0.00 0.00 0.01 0.01 0.01 0.01
0.00 0.00 0.00 0.00 0.00 0.00 0.00 0.00 0.00 0.00 0.00 0.00 0.00 0.00 0.00 0.00 0.00 0.00 0.00 0.00 0.00 0.00 0.01 0.01 0.00 0.00 0.00 0.00 0.00 0.00 0.00 0.00 0.00 0.00 0.00 0.00 0.00 0.00 0.01 0.01 0.01 0.01 0.02
0.00 0.00 0.00 0.00 0.00 0.00 0.00 0.00 0.00 0.00 0.00 0.00 0.00 0.00 0.00 0.00 0.00 0.00 0.00 0.00 0.00 0.00 0.01 0.01 0.01 0.00 0.00 0.00 0.00 0.00 0.00 0.00 0.00 0.00 0.00 0.00 0.01 0.01 0.01 0.02 0.02 0.02 0.02
0.00 0.00 0.00 0.00 0.00 0.00 0.00 0.00 0.00 0.00 0.00 0.00 0.00 0.00 0.00 0.00 0.01 0.01 0.01 0.01 0.01 0.01 0.01 0.02 0.02 0.01 0.01 0.01 0.01 0.01 0.00 0.00 0.00 0.00 0.00 0.01 0.01 0.01 0.01 0.02 0.02 0.03 0.03
0.00 0.00 0.00 0.00 0.00 0.00 0.00 0.00 0.00 0.00 0.00 0.00 0.00 0.00 0.00 0.01 0.01 0.02 0.02 0.02 0.03 0.03 0.04 0.04 0.04 0.03 0.02 0.02 0.01 0.01 0.01 0.01 0.01 0.00 0.01 0.00 0.01 0.01 0.01 0.01 0.01 0.02 0.03
0.00 0.00 0.00 0.00 0.00 0.00 0.00 0.00 0.00 0.00 0.00 0.00 0.00 0.00 0.00 0.01 0.01 0.02 0.03 0.04 0.04 0.05 0.07 0.08 0.08 0.07 0.05 0.03 0.03 0.03 0.03 0.03 0.02 0.01 0.01 0.00 0.00 0.01 0.00 0.00 0.01 0.01 0.02
0.00 0.00 0.00 0.00 0.00 0.00 0.00 0.00 0.00 0.00 0.00 0.00 0.00 0.00 0.00 0.00 0.01 0.01 0.01 0.02 0.02 0.03 0.04 0.05 0.06 0.05 0.04 0.03 0.04 0.05 0.05 0.04 0.03 0.02 0.02 0.02 0.01 0.01 0.00 0.00 0.01 0.01 0.02
0.00 0.00 0.00 0.00 0.00 0.00 0.00 0.00 0.00 0.00 0.00 0.00 0.00 0.00 0.01 0.01 0.01 0.01 0.01 0.01 0.01 0.01 0.01 0.02 0.02 0.02 0.02 0.02 0.03 0.04 0.05 0.06 0.05 0.03 0.03 0.04 0.01 0.00 0.00 0.00 0.01 0.01 0.02
0.00 0.00 0.00 0.00 0.00 0.00 0.00 0.00 0.00 0.00 0.00 0.00 0.00 0.00 0.01 0.01 0.01 0.03 0.03 0.03 0.02 0.02 0.02 0.02 0.03 0.03 0.04 0.05 0.07 0.09 0.12 0.13 0.11 0.04 0.02 0.03 0.01 0.01 0.01 0.01 0.01 0.01 0.02
0.00 0.00 0.00 0.00 0.00 0.00 0.00 0.00 0.00 0.01 0.01 0.01 0.01 0.01 0.01 0.02 0.03 0.04 0.04 0.04 0.04 0.02 0.02 0.02 0.02 0.02 0.02 0.02 0.04 0.06 0.09 0.13 0.13 0.09 0.02 0.01 0.01 0.02 0.03 0.01 0.00 0.01 0.01
MSLP
1021.74 1021.90 1021.99 1022.01 1021.99 1021.97 1021.96 1021.96 1021.99 1022.03 1022.06 1022.08 1022.06 1022.03 1021.97 1021.91 1021.86 1021.81 1021.77 1021.74 1021.70 1021.65 1021.57 1021.48 1021.36 1021.25 1021.13 1021.05 1020.98 1020.95 1020.95 1020.97 1021.01 1021.07 1021.15 1021.24 1021.34 1021.45 1021.55 1021.64 1021.71 1021.76 1021.77
1021.43 1021.58 1021.66 1021.69 1021.68 1021.66 1021.64 1021.64 1021.65 1021.67 1021.68 1021.67 1021.63 1021.57 1021.48 1021.38 1021.28 1021.19 1021.11 1021.04 1020.97 1020.91 1020.84 1020.77 1020.68 1020.58 1020.48 1020.39 1020.30 1020.24 1020.19 1020.18 1020.20 1020.25 1020.34 1020.46 1020.61 1020.76 1020.92 1021.07 1021.18 1021.27 1021.32
1021.08 1021.23 1021.33 1021.38 1021.40 1021.41 1021.41 1021.41 1021.42 1021.43 1021.42 1021.39 1021.32 1021.21 1021.08 1020.92 1020.75 1020.58 1020.43 1020.31 1020.21 1020.13 1020.06 1020.00 1019.94 1019.88 1019.80 1019.72 1019.62 1019.53 1019.45 1019.40 1019.38 1019.41 1019.49 1019.61 1019.78 1019.97 1020.16 1020.34 1020.50 1020.62 1020.72
1020.73 1020.89 1021.01 1021.10 1021.17 1021.22 1021.26 1021.29 1021.32 1021.32 1021.29 1021.23 1021.13 1020.97 1020.78 1020.54 1020.29 1020.04 1019.81 1019.61 1019.46 1019.35 1019.28 1019.24 1019.21 1019.18 1019.14 1019.07 1018.97 1018.86 1018.75 1018.65 1018.58 1018.57 1018.62 1018.72 1018.87 1019.06 1019.26 1019.46 1019.64 1019.80 1019.94
1020.43 1020.60 1020.75 1020.89 1021.01 1021.11 1021.19 1021.25 1021.29 1021.30 1021.26 1021.18 1021.04 1020.84 1020.58 1020.27 1019.94 1019.60 1019.28 1019.00 1018.78 1018.63 1018.55 1018.52 1018.52 1018.52 1018.50 1018.45 1018.36 1018.24 1018.09 1017.94 1017.82 1017.75 1017.75 1017.80 1017.91 1018.07 1018.25 1018.44 1018.62 1018.79 1018.95
1020.21 1020.37 1020.55 1020.73 1020.89 1021.04 1021.15 1021.24 1021.29 1021.29 1021.25 1021.16 1020.99 1020.76 1020.45 1020.09 1019.68 1019.26 1018.85 1018.50 1018.21 1018.01 1017.90 1017.86 1017.87 1017.89 1017.90 1017.86 1017.77 1017.63 1017.45 1017.26 1017.09 1016.95 1016.88 1016.87 1016.92 1017.02 1017.15 1017.30 1017.46 1017.62 1017.80
1020.07 1020.23 1020.41 1020.61 1020.79 1020.96 1021.09 1021.18 1021.24 1021.25 1021.21 1021.10 1020.93 1020.69 1020.36 1019.96 1019.50 1019.02 1018.54 1018.11 1017.76 1017.50 1017.34 1017.27 1017.27 1017.29 1017.30 1017.26 1017.17 1017.02 1016.81 1016.58 1016.36 1016.16 1016.02 1015.94 1015.92 1015.95 1016.02 1016.11 1016.23 1016.36 1016.52
1020.01 1020.14 1020.31 1020.50 1020.68 1020.83 1020.96 1021.04 1021.09 1021.10 1021.05 1020.96 1020.80 1020.56 1020.24 1019.83 1019.36 1018.84 1018.31 1017.82 1017.40 1017.08 1016.86 1016.74 1016.70 1016.69 1016.68 1016.63 1016.53 1016.36 1016.13 1015.87 1015.61 1015.37 1015.18 1015.04 1014.96 1014.92 1014.92 1014.95 1015.00 1015.09 1015.21
1020.00 1020.10 1020.24 1020.39 1020.53 1020.65 1020.74 1020.79 1020.82 1020.81 1020.78 1020.70 1020.56 1020.36 1020.06 1019.68 1019.21 1018.68 1018.13 1017.59 1017.11 1016.72 1016.43 1016.24 1016.13 1016.07 1016.02 1015.94 1015.81 1015.63 1015.39 1015.12 1014.85 1014.59 1014.37 1014.19 1014.06 1013.97 1013.90 1013.86 1013.85 1013.88 1013.96
1020.03 1020.08 1020.17 1020.26 1020.34 1020.40 1020.44 1020.44 1020.43 1020.41 1020.37 1020.31 1020.21 1020.05 1019.80 1019.46 1019.02 1018.50 1017.94 1017.37 1016.84 1016.38 1016.01 1015.74 1015.55 1015.42 1015.32 1015.20 1015.04 1014.84 1014.60 1014.34 1014.06 1013.81 1013.58 1013.40 1013.24 1013.12 1013.01 1012.92 1012.84 1012.80 1012.81
1020.06 1020.07 1020.10 1020.13 1020.13 1020.12 1020.08 1020.03 1019.97 1019.93 1019.89 1019.84 1019.77 1019.65 1019.45 1019.16 1018.76 1018.26 1017.70 1017.11 1016.54 1016.02 1015.58 1015.23 1014.97 1014.77 1014.59 1014.43 1014.24 1014.03 1013.79 1013.54 1013.29 1013.06 1012.85 1012.68 1012.52 1012.38 1012.25 1012.11 1011.99 1011.88 1011.82
1020.10 1020.06 1020.03 1019.99 1019.92 1019.83 1019.71 1019.60 1019.49 1019.41 1019.36 1019.32 1019.27 1019.19 1019.03 1018.78 1018.41 1017.95 1017.40 1016.81 1016.21 1015.65 1015.15 1014.73 1014.40 1014.12 1013.89 1013.68 1013.46 1013.24 1013.01 1012.77 1012.54 1012.34 1012.17 1012.01 1011.88 1011.74 1011.59 1011.43 1011.26 1011.09 1010.96
1020.12 1020.05 1019.96 1019.85 1019.71 1019.55 1019.37 1019.19 1019.04 1018.92 1018.85 1018.80 1018.76 1018.69 1018.55 1018.33 1018.00 1017.56 1017.02 1016.44 1015.83 1015.25 1014.72 1014.25 1013.86 1013.54 1013.25 1013.00 1012.75 1012.51 1012.28 1012.05 1011.85 1011.67 1011.52 1011.39 1011.27 1011.14 1011.00 1010.82 1010.61 1010.40 1010.20
1020.11 1020.01 1019.88 1019.72 1019.52 1019.29 1019.05 1018.82 1018.63 1018.48 1018.37 1018.31 1018.26 1018.18 1018.05 1017.84 1017.53 1017.10 1016.59 1016.02 1015.43 1014.85 1014.30 1013.82 1013.40 1013.03 1012.71 1012.42 1012.15 1011.89 1011.64 1011.40 1011.20 1011.03 1010.89 1010.78 1010.67 1010.55 1010.40 1010.22 1010.00 1009.75 1009.50
1020.08 1019.95 1019.77 1019.56 1019.32 1019.04 1018.77 1018.50 1018.27 1018.09 1017.96 1017.87 1017.79 1017.69 1017.55 1017.33 1017.02 1016.61 1016.12 1015.57 1015.00 1014.44 1013.91 1013.43 1013.00 1012.62 1012.28 1011.96 1011.65 1011.36 1011.08 1010.83 1010.61 1010.42 1010.27 1010.15 1010.03 1009.91 1009.77 1009.58 1009.35 1009.09 1008.82
1020.00 1019.83 1019.62 1019.37 1019.09 1018.79 1018.49 1018.20 1017.95 1017.74 1017.59 1017.46 1017.35 1017.22 1017.05 1016.81 1016.49 1016.09 1015.62 1015.10 1014.56 1014.04 1013.54 1013.08 1012.66 1012.28 1011.92 1011.58 1011.24 1010.91 1010.59 1010.30 1010.03 1009.81 1009.63 1009.48 1009.35 1009.21 1009.07 1008.88 1008.66 1008.41 1008.13
1019.85 1019.64 1019.40 1019.12 1018.81 1018.49 1018.18 1017.89 1017.63 1017.41 1017.23 1017.08 1016.93 1016.76 1016.55 1016.28 1015.94 1015.54 1015.08 1014.59 1014.09 1013.61 1013.15 1012.72 1012.32 1011.95 1011.58 1011.22 1010.85 1010.49 1010.12 1009.78 1009.46 1009.19 1008.96 1008.77 1008.60 1008.45 1008.30 1008.12 1007.92 1007.68 1007.42
1019.62 1019.37 1019.09 1018.79 1018.47 1018.14 1017.83 1017.54 1017.28 1017.05 1016.86 1016.68 1016.49 1016.28 1016.03 1015.72 1015.36 1014.95 1014.50 1014.03 1013.56 1013.11 1012.69 1012.29 1011.91 1011.55 1011.18 1010.81 1010.42 1010.02 1009.61 1009.22 1008.85 1008.53 1008.25 1008.02 1007.82 1007.65 1007.49 1007.33 1007.14 1006.94 1006.70
1019.33 1019.03 1018.72 1018.39 1018.05 1017.73 1017.42 1017.14 1016.89 1016.66 1016.44 1016.23 1016.01 1015.75 1015.46 1015.11 1014.72 1014.29 1013.84 1013.38 1012.93 1012.50 1012.10 1011.72 1011.37 1011.01 1010.65 1010.26 1009.86 1009.44 1009.01 1008.59 1008.19 1007.83 1007.52 1007.25 1007.03 1006.84 1006.68 1006.52 1006.36 1006.19 1006.00
1018.97 1018.64 1018.29 1017.95 1017.61 1017.28 1016.98 1016.70 1016.44 1016.20 1015.97 1015.73 1015.46 1015.16 1014.82 1014.43 1014.00 1013.55 1013.08 1012.61 1012.17 1011.74 1011.35 1010.98 1010.63 1010.28 1009.92 1009.54 1009.14 1008.72 1008.29 1007.86 1007.46 1007.08 1006.75 1006.47 1006.23 1006.04 1005.87 1005.73 1005.59 1005.45 1005.29
1018.58 1018.22 1017.86 1017.50 1017.15 1016.82 1016.51 1016.22 1015.95 1015.69 1015.43 1015.14 1014.83 1014.48 1014.09 1013.65 1013.19 1012.70 1012.21 1011.73 1011.27 1010.83 1010.43 1010.06 1009.70 1009.35 1009.00 1008.63 1008.25 1007.85 1007.44 1007.04 1006.65 1006.29 1005.97 1005.69 1005.45 1005.26 1005.10 1004.96 1004.84 1004.71 1004.58
1018.19 1017.82 1017.45 1017.07 1016.71 1016.37 1016.04 1015.73 1015.43 1015.13 1014.82 1014.49 1014.12 1013.72 1013.27 1012.79 1012.29 1011.76 1011.24 1010.73 1010.25 1009.79 1009.37 1008.98 1008.61 1008.26 1007.91 1007.56 1007.21 1006.85 1006.48 1006.13 1005.78 1005.46 1005.17 1004.91 1004.69 1004.50 1004.34 1004.21 1004.09 1003.98 1003.87
1017.83 1017.46 1017.08 1016.70 1016.32 1015.95 1015.59 1015.24 1014.89 1014.53 1014.16 1013.77 1013.34 1012.88 1012.39 1011.87 1011.33 1010.77 1010.22 1009.69 1009.17 1008.69 1008.24 1007.83 1007.44 1007.08 1006.74 1006.41 1006.08 1005.77 1005.46 1005.16 1004.87 1004.61 1004.36 1004.13 1003.93 1003.75 1003.60 1003.47 1003.35 1003.25 1003.14
1017.51 1017.15 1016.76 1016.37 1015.96 1015.55 1015.14 1014.73 1014.32 1013.89 1013.46 1013.00 1012.52 1012.01 1011.48 1010.92 1010.36 1009.78 1009.21 1008.65 1008.12 1007.61 1007.14 1006.70 1006.29 1005.91 1005.57 1005.25 1004.96 1004.68 1004.42 1004.18 1003.96 1003.74 1003.54 1003.35 1003.17 1003.01 1002.87 1002.74 1002.62 1002.51 1002.41
1017.21 1016.86 1016.47 1016.05 1015.61 1015.15 1014.69 1014.21 1013.72 1013.23 1012.73 1012.21 1011.68 1011.14 1010.58 1010.01 1009.44 1008.86 1008.29 1007.72 1007.17 1006.65 1006.15 1005.69 1005.26 1004.86 1004.51 1004.19 1003.91 1003.66 1003.44 1003.25 1003.06 1002.89 1002.73 1002.58 1002.43 1002.29 1002.15 1002.03 1001.91 1001.81 1001.71
1016.91 1016.56 1016.15 1015.71 1015.22 1014.72 1014.19 1013.64 1013.09 1012.54 1011.98 1011.42 1010.86 1010.30 1009.74 1009.18 1008.62 1008.06 1007.50 1006.95 1006.41 1005.88 1005.37 1004.88 1004.43 1004.01 1003.64 1003.31 1003.02 1002.78 1002.57 1002.40 1002.24 1002.10 1001.97 1001.84 1001.71 1001.59 1001.47 1001.36 1001.26 1001.18 1001.10
Thickness
5644 5642 5640 5638 5636 5635 5634 5633 5632 5631 5631 5631 5631 5631 5631 5631 5631 5631 5631 5631 5630 5630 5630 5630 5631 5631 5631 5631 5631 5631 5630 5630 5629 5628 5627 5627 5626 5625 5624 5623 5623 5622 5622
5640 5638 5635 5633 5632 5630 5629 5628 5627 5626 5626 5626 5626 5626 5626 5626 5626 5627 5627 5626 5626 5625 5624 5624 5624 5625 5625 5626 5626 5625 5625 5625 5624 5623 5623 5622 5621 5620 5619 5618 5617 5617 5616
5636 5633 5631 5629 5627 5625 5624 5623 5621 5620 5620 5620 5620 5620 5620 5621 5621 5622 5622 5622 5622 5621 5620 5619 5618 5618 5619 5619 5620 5619 5619 5618 5618 5618 5617 5616 5615 5614 5614 5613 5612 5611 5610
5631 5629 5626 5624 5622 5620 5618 5617 5615 5613 5613 5613 5613 5614 5614 5615 5616 5616 5617 5617 5617 5616 5616 5614 5613 5612 5612 5612 5613 5613 5612 5612 5612 5611 5611 5611 5610 5609 5608 5607 5606 5605 5604
5626 5623 5621 5618 5616 5614 5612 5610 5609 5607 5606 5605 5605 5607 5608 5609 5609 5610 5611 5611 5611 5611 5611 5609 5607 5605 5604 5604 5604 5605 5605 5605 5605 5605 5605 5604 5604 5603 5602 5601 5600 5599 5598
5620 5617 5614 5612 5610 5608 5605 5603 5602 5600 5599 5598 5598 5600 5601 5602 5602 5603 5605 5605 5605 5605 5603 5602 5600 5598 5596 5595 5594 5594 5595 5597 5597 5598 5598 5597 5597 5596 5596 5595 5594 5593 5592
5613 5610 5608 5605 5603 5600 5599 5597 5595 5593 5591 5590 5588 5589 5593 5595 5597 5599 5600 5600 5599 5598 5596 5594 5592 5591 5589 5586 5585 5584 5584 5585 5587 5588 5589 5589 5589 5589 5588 5588 5587 5586 5585
5607 5604 5601 5599 5596 5594 5592 5590 5587 5585 5583 5581 5576 5573 5576 5584 5590 5595 5594 5593 5592 5591 5589 5586 5583 5581 5579 5577 5575 5573 5572 5572 5574 5576 5578 5579 5579 5580 5580 5580 5579 5579 5578
5601 5598 5595 5593 5590 5587 5585 5583 5580 5577 5574 5572 5568 5562 5558 5563 5571 5580 5581 5581 5579 5578 5577 5576 5574 5571 5568 5566 5564 5562 5560 5559 5559 5560 5562 5565 5567 5569 5570 5570 5571 5571 5571
5594 5592 5589 5586 5583 5580 5578 5575 5573 5570 5566 5562 5559 5557 5554 5550 5548 5556 5565 5566 5564 5562 5560 5559 5559 5558 5556 5554 5552 5549 5546 5544 5543 5543 5545 5547 5550 5553 5556 5558 5560 5561 5561
5587 5584 5581 5578 5575 5572 5569 5567 5564 5560 5557 5553 5549 5546 5543 5540 5537 5534 5543 5546 5547 5547 5546 5544 5542 5541 5540 5539 5537 5534 5530 5528 5526 5526 5526 5528 5530 5534 5539 5543 5546 5548 5550
5577 5575 5573 5569 5566 5563 5560 5557 5554 5550 5546 5542 5538 5534 5530 5525 5522 5519 5522 5526 5528 5531 5529 5528 5525 5523 5521 5519 5518 5515 5513 5511 5509 5508 5507 5507 5509 5512 5516 5522 5527 5532 5535
5566 5565 5562 5559 5556 5553 5550 5547 5543 5539 5535 5531 5527 5523 5518 5515 5510 5505 5503 5507 5508 5511 5509 5508 5505 5501 5498 5496 5495 5494 5493 5491 5489 5488 5487 5486 5487 5489 5493 5498 5503 5510 5516
5557 5555 5552 5549 5546 5543 5540 5536 5532 5528 5524 5519 5515 5510 5505 5501 5495 5489 5483 5480 5484 5491 5489 5488 5483 5478 5474 5471 5470 5469 5470 5469 5468 5466 5465 5464 5464 5466 5469 5473 5479 5485 5492
5548 5545 5542 5539 5536 5532 5528 5524 5520 5516 5511 5507 5501 5496 5491 5486 5480 5473 5467 5459 5454 5462 5474 5470 5460 5455 5449 5445 5444 5442 5443 5443 5443 5443 5442 5441 5441 5443 5446 5450 5455 5461 5467
5537 5534 5531 5527 5524 5520 5515 5511 5506 5502 5497 5492 5486 5480 5475 5469 5463 5456 5448 5442 5434 5430 5445 5453 5440 5432 5426 5423 5420 5418 5419 5418 5419 5420 5420 5420 5421 5423 5425 5429 5433 5439 5445
5526 5522 5518 5514 5510 5506 5502 5496 5491 5486 5480 5475 5468 5462 5456 5449 5443 5436 5428 5422 5415 5408 5412 5431 5422 5413 5406 5402 5401 5399 5399 5399 5400 5400 5401 5403 5404 5406 5408 5412 5415 5420 5425
5513 5509 5505 5501 5496 5492 5486 5480 5475 5469 5462 5456 5448 5440 5434 5426 5420 5413 5406 5401 5396 5390 5387 5399 5406 5396 5390 5386 5384 5383 5384 5385 5386 5387 5387 5389 5391 5392 5394 5397 5400 5404 5409
5500 5496 5492 5487 5482 5477 5471 5465 5459 5452 5445 5437 5429 5420 5412 5404 5399 5392 5387 5383 5379 5376 5371 5373 5384 5380 5376 5372 5370 5371 5372 5372 5374 5375 5376 5377 5379 5380 5382 5384 5387 5391 5395
5488 5483 5479 5473 5468 5462 5456 5449 5442 5435 5428 5420 5411 5402 5394 5386 5381 5376 5372 5369 5365 5362 5360 5359 5364 5366 5364 5362 5358 5359 5361 5361 5363 5364 5365 5367 5368 5370 5371 5373 5376 5379 5383
5475 5471 5466 5461 5454 5447 5440 5433 5426 5419 5411 5404 5396 5387 5380 5374 5369 5365 5362 5360 5356 5353 5352 5351 5354 5356 5356 5352 5350 5350 5352 5354 5355 5354 5354 5356 5357 5359 5360 5362 5364 5367 5371
5463 5458 5452 5446 5440 5433 5425 5418 5411 5404 5396 5388 5381 5374 5368 5363 5359 5356 5354 5353 5350 5347 5345 5344 5346 5347 5348 5345 5343 5342 5342 5344 5348 5348 5345 5349 5348 5350 5351 5352 5354 5357 5360
5451 5445 5439 5432 5426 5418 5409 5402 5394 5387 5380 5372 5365 5360 5357 5353 5349 5347 5346 5345 5344 5341 5340 5338 5338 5339 5339 5338 5335 5336 5335 5336 5340 5339 5335 5340 5339 5341 5342 5344 5346 5349 5352
5438 5431 5425 5418 5410 5402 5393 5385 5378 5372 5366 5359 5353 5348 5345 5344 5340 5338 5338 5338 5337 5335 5333 5332 5332 5333 5333 5332 5330 5329 5330 5331 5333 5332 5329 5332 5335 5335 5337 5338 5339 5342 5344
5425 5418 5410 5402 5394 5387 5377 5369 5363 5358 5353 5348 5344 5339 5336 5335 5334 5332 5333 5332 5332 5332 5331 5330 5331 5331 5332 5331 5329 5327 5327 5326 5330 5331 5327 5326 5330 5329 5330 5332 5334 5336 5338
5411 5404 5397 5387 5378 5370 5362 5355 5348 5344 5341 5338 5335 5331 5328 5326 5327 5327 5325 5325 5326 5327 5325 5326 5326 5326 5325 5325 5324 5323 5321 5321 5323 5325 5325 5322 5324 5322 5325 5328 5328 5329 5331